Regional Weather Roundup
Issued by NWS

Home | Current Version | Previous Version | Text Only | Print | Product List | Glossary On
Versions: 1 2 3 4 5 6 7 8 9 10 11 12 13 14 15 16 17 18 19 20 21 22 23 24 25 26 27 28 29 30 31 32 33 34 35 36 37 38 39 40 41 42 43 44 45 46 47 48 49 50
000
ASUS45 KABQ 061510
RWRNM
NEW MEXICO REGIONAL WEATHER ROUNDUP
NATIONAL WEATHER SERVICE ALBUQUERQUE NM
800 AM MST SAT FEB 06 2016

NOTE: "FAIR" MEANS FEW OR NO CLOUDS BELOW 12,000 FEET AGL WITH NO
       SIGNIFICANT WEATHER OR OBSTRUCTIONS TO VISION.

      THIS PRODUCT IS RELEASED AS TWO VERSIONS.  ONE VERSION NEAR
      THE TOP OF THE HOUR CONTAINING PRELIMINARY DATA FROM ALBUQUERQUE
      AND OTHER STATIONS.  A FINAL VERSION WITH ADDITIONAL DATA IS
      ISSUED ABOUT 10 MINUTES AFTER THE HOUR.

NMZ501-503-504-510>518-061600-
NORTHWEST PLATEAU/NORTHCENTRAL MOUNTAINS

CITY           SKY/WX    TMP DP  RH WIND       PRES   REMARKS
FARMINGTON     CLEAR     15   9  76 NE3       30.51R
LOS ALAMOS     CLOUDY    16   8  71 CALM      30.42R
SANTA FE       CLOUDY    22   8  55 NW14      30.42R WCI   9
TAOS           CLOUDY     3   1  92 NE6       30.44S WCI  -8
ANGEL FIRE     FAIR     -16 -21  79 CALM      30.39S

$$
NMZ402-403-502-505>509-061600-
WESTCENTRAL MOUNTAINS/SOUTHWEST MOUNTAINS

CITY           SKY/WX    TMP DP  RH WIND       PRES   REMARKS
GALLUP         CLEAR     11   7  84 CALM      30.51R
GRANTS         CLEAR     10   6  81 NW6       30.52R WCI   1
SILVER CITY      N/A     27   9  46 NE8       30.44F WCI  18

$$
NMZ407-409-411-412-061600-
SOUTHERN DESERTS

CITY           SKY/WX    TMP DP  RH WIND       PRES   REMARKS
LORDSBURG      FAIR      23  10  58 N3        30.46R
DEMING         SUNNY     24   5  44 NE3       30.46S
LAS CRUCES     SUNNY     27   9  47 NW5       30.48S WCI  21
HOLLOMAN AFB   CLOUDY    29   6  37 NE6       30.47S WCI  23
ALAMOGORDO     CLOUDY    32   3  29 N8        30.47F WCI  25
T OR C         SUNNY     28   8  43 N5        30.48R WCI  23

$$
NMZ519>523-061600-
CENTRAL VALLEYS/CENTRAL HIGHLANDS

CITY           SKY/WX    TMP DP  RH WIND       PRES   REMARKS
ALBUQUERQUE    CLOUDY    24  12  60 W6        30.50R WCI  17
DOUBLE EAGLE   CLEAR     23  14  68 NW8       30.48R WCI  14
MORIARTY ARPT  FAIR      22  14  70 N6        30.43R WCI  15
CLINES CORNERS CLOUDY    18   8  65 NW23G30   30.33R WCI   0
BELEN          FAIR      20  11  67 N6        30.50R WCI  13
SOCORRO        FAIR      27  11  51 N5        30.51R WCI  21

$$
NMZ524>526-539-540-061600-
SOUTHCENTRAL MOUNTAINS

CITY           SKY/WX    TMP DP  RH WIND       PRES   REMARKS
RUIDOSO          N/A     30   0  27 W7        30.42R WCI  23

$$
NMZ527>531-061600-
NORTHEAST HIGHLANDS/NORTHEAST PLAINS

CITY           SKY/WX    TMP DP  RH WIND       PRES   REMARKS
LAS VEGAS      CLOUDY    25   5  42 CALM      30.32R
RATON          CLOUDY    16   6  65 NE7       30.30R WCI   6
CLAYTON        CLOUDY    32  12  43 W8        30.30R WCI  25

$$
NMZ532>537-061600-
EASTCENTRAL PLAINS

CITY           SKY/WX    TMP DP  RH WIND       PRES   REMARKS
TUCUMCARI      CLOUDY    24  16  71 W7        30.36R WCI  16
CANNON AFB     NOT AVBL
CLOVIS AIRPORT CLOUDY    25  18  74 CALM      30.37S

$$
NMZ028-029-538-061600-
SOUTHEAST PLAINS

CITY           SKY/WX    TMP DP  RH WIND       PRES   REMARKS
ROSWELL        CLOUDY    25  13  60 CALM      30.41S
ARTESIA        CLOUDY    30  10  43 W5        30.44R WCI  25
CARLSBAD       CLOUDY    27  16  63 NW3       30.42S
HOBBS          SUNNY     30  19  64 CALM      30.42R


$$



USA.gov is the U.S. government's official web portal to all federal, state and local government web resources and services.